Printer-friendly version

IAU Minor Planet Center

Minor Planet Center

MPEC 2005-V92 : COMET P/2005 T5 (BROUGHTON)

The following Minor Planet Electronic Circular may be linked-to from your own Web pages, but must not otherwise be redistributed electronically.


Read MPEC 2005-V91 Read MPEC 2005-V93


M.P.E.C. 2005-V92                                Issued 2005 Nov. 14, 20:44 UT

     The Minor Planet Electronic Circulars contain information on unusual
         minor planets and routine data on comets.  They are published
   on behalf of Commission 20 of the International Astronomical Union by the
          Minor Planet Center, Smithsonian Astrophysical Observatory,
                          Cambridge, MA 02138, U.S.A.

                  Supported in part by the Brinson Foundation
                  Supported in part by the TABASGO Foundation
             Prepared using the Tamkin Foundation Computer Network

                              MPC@CFA.HARVARD.EDU
          URL http://cfa-www.harvard.edu/iau/mpc.html  ISSN 1523-6714

                          COMET P/2005 T5 (BROUGHTON)

Observations:
    PK05T050  C2005 11 09.47563 23 55 38.00 -23 48 32.4          19.2 N EV092415
    PK05T050  C2005 11 09.48034 23 55 38.07 -23 48 29.7          20.0 N EV092415
    PK05T050  C2005 11 13.09028 23 55 30.14 -23 13 37.1          18.8 T EV092673
    PK05T050  C2005 11 13.10463 23 55 30.13 -23 13 28.8                 EV092673
    PK05T050  C2005 11 13.11366 23 55 30.11 -23 13 23.3                 EV092673
    PK05T050  C2005 11 13.12106 23 55 30.12 -23 13 19.1                 EV092673

Observer details:
415 Kambah, near Canberra.  Observer D. Herald.  0.36-m f/3.9
    Schmidt-Cassegrain + CCD.
673 Table Mountain Observatory, Wrightwood.  Observer J. Young.  0.6-m f/16
    Cassegrain + CCD.

Orbital elements:
    P/2005 T5 (Broughton)
Epoch 2005 Nov. 6.0 TT = JDT 2453680.5
T 2005 Nov. 3.53225 TT                                  MPC
q   3.2470514            (2000.0)            P               Q
n   0.05042924     Peri.  304.52025     +0.95205564     +0.00503880
a   7.2557294      Node    57.06556     +0.17310307     +0.81553366
e   0.5524845      Incl.   21.37396     -0.25224072     +0.57868770
P  19.54
Residuals in seconds of arc
050826 E12  1.0+  0.0     051024 413  0.2-  0.4-    051102 415  0.1+  0.1-
050826 E12  0.7-  0.4-    051024 413  0.0   0.4-    051102 415  0.7-  0.4-
050826 E12  1.1+  0.7+    051025 734  0.4+  0.5-    051102 415  0.2-  0.2-
050826 E12  1.2-  0.1-    051025 734  0.7+  0.1+    051104 415  0.3+  0.2-
050926 704  0.4+  0.7+    051025 734  0.2+  0.4+    051105 699  0.0   0.2+
050926 704  0.5-  0.0     051025 644  0.0   0.3+    051105 699  0.3+  0.7+
050926 704  0.7-  0.0     051025 701  0.8-  0.4-    051105 699  0.5+  1.4+
050926 704  0.7-  0.3+    051025 644  0.4-  0.2-    051105 699  0.5-  1.1+
051002 E12  0.0   0.0     051025 701  0.5-  1.0+    051105 213  0.3+  0.1-
051002 E12  1.2+  0.1-    051025 G96  1.3+  0.7+    051105 213  0.3+  0.5+
051002 E12  0.9-  0.5-    051025 644  0.2-  0.3+    051105 213  0.5-  1.0+
051002 E12  0.2-  0.7-    051025 G96  1.1+  0.0     051105 213  0.4-  1.0+
051007 428 (3.5+  1.1-)   051025 701  0.2-  0.5-    051106 673  0.1-  0.8-
051009 428  0.1-  0.1-    051025 G96  0.4+  0.1+    051106 673  0.0   0.9-
051009 428  0.6-  1.1+    051025 G96  0.7+  0.7+    051106 673  0.0   0.8-
051023 428  0.2-  0.5+    051025 651  0.1-  0.3-    051106 673  0.1-  0.8-
051023 428  0.1-  0.1+    051025 651  0.1+  0.2-    051108 415  0.0   0.0
051023 428  0.3+  0.2+    051026 415  0.4-  0.1+    051108 415  0.5-  0.3-
051023 428  0.3-  0.0     051026 415  0.2+  0.3+    051108 415  0.2-  0.1-
051024 673  0.1-  1.2-    051026 215  0.1-  0.6+    051109 415  1.1-  0.3-
051024 673  0.2-  1.2-    051026 A79  1.4-  0.0     051109 415  0.2+  0.3-
051024 673  0.3-  1.2-    051026 A79  0.2-  0.5-    051113 673  0.1-  0.1-
051024 673  0.2-  1.2-    051026 A79  0.0   0.0     051113 673  0.0   0.3-
051024 413  0.2+  0.3-    051027 372  0.8+  0.1-    051113 673  0.2-  0.1-
051024 413  0.2+  0.6-    051102 415  0.9+  0.3-    051113 673  0.1+  0.3-

Brian G. Marsden             (C) Copyright 2005 MPC           M.P.E.C. 2005-V92

Read MPEC 2005-V91 Read MPEC 2005-V93


Our Web policy. Index to the CBAT/MPC/ICQ pages.


Valid HTML 4.01!